Miscellaneous Local Product
Issued by NWS North Platte, NE

Home | Current Version | Previous Version | Text Only | Print | Product List | Glossary On
Versions: 1 2 3 4 5 6 7 8 9 10 11 12 13 14 15 16 17 18 19 20 21 22 23 24 25 26 27 28 29 30 31 32 33 34 35 36 37 38 39 40 41 42 43 44 45 46 47 48 49 50
491
AXUS43 KLBF 232310
MISLBF


WESTERN AND NORTH CENTRAL NEBRASKA HOURLY WEATHER ROUNDUP
NATIONAL WEATHER SERVICE NORTH PLATTE NE
500 PM CST THU FEB 23 2017

NOTE: "FAIR" INDICATES FEW OR NO CLOUDS BELOW 12,000 FEET WITH NO
SIGNIFICANT WEATHER AND/OR OBSTRUCTIONS TO VISIBILITY.

NOTE: STATIONS NOT REPORTING VARIABLES SUCH AS SKY/WEATHER OR
PRESSURE ARE PROVIDED BY RAWS AND APRS NETWORKS AND ARE NOT UNDER
NATIONAL WEATHER SERVICE QUALITY CONTROL.

...OBSERVATIONS IN AND NEAR THE EASTERN PANHANDLE OF NEBRASKA...

CITY           SKY/WX    TMP DP  RH WIND       PRES   REMARKS
PINE RIDGE     LGT SNOW  26  23  88 NE16      29.81R VSB 1   WCI  14
CHADRON        CLOUDY    25  21  85 NE17      29.82R FOG     WCI  12
ALLIANCE       FOG       22  19  89 NE28G37   29.71R VSB 1/4 WCI   4
SIDNEY         LGT SNOW  23  19  85 N18       29.70R FOG     WCI   9
CRESCENT LAKE    N/A     22  21  96 NE14        N/A  WCI   9
$$

...OBSERVATIONS IN NORTHERN NEBRASKA AND FAR SOUTHERN SOUTH DAKOTA...

CITY           SKY/WX    TMP DP  RH WIND       PRES   REMARKS
WINNER         LGT SNOW  29  26  89 N24       29.82R FOG     WCI  15
VALENTINE      SNOW      26  22  84 N21G30    29.76S VSB 1/4 WCI  12
THEDFORD       LGT SNOW  27  25  91 N10G23    29.72R WCI  18
AINSWORTH      SNOW      27  26  96 N20G29    29.72R VSB 1/2 WCI  13
O`NEILL        SNOW      29  28  96 N21G29    29.71R VSB 1/2 WCI  16
ORD            SNOW      30  27  88 NE13      29.67R VSB 1/2 WCI  20
BROKEN BOW     LGT SNOW  29  27  92 NE16G22   29.65R VSB 3/4 WCI  17
VALENTINE NWR    N/A     25  23  93 NE15G30     N/A  WCI  13
BUTTE            N/A     27  26  95 N23G33      N/A  WCI  13
HALSEY           N/A     26  25  94 NE9G22      N/A  WCI  17
CHAMBERS         N/A     29  28  94 CALM        N/A
EWING            N/A     30  29  94 NE14G22     N/A  WCI  19
$$

...OBSERVATIONS IN SOUTHWEST NEBRASKA AND FAR NORTHEAST COLORADO...

CITY           SKY/WX    TMP DP  RH WIND       PRES   REMARKS
HOLYOKE        LGT SNOW  30  27  86 N9        29.68R VSB 3/4 WCI  22
IMPERIAL       LGT SNOW  27  25  92 N17       29.66R VSB 3/4 WCI  14
OGALLALA       LGT SNOW  29  26  88 N13       29.69R VSB 1   WCI  18
NORTH PLATTE   MIX PCPN  30  24  78 NE17G24   29.67R WCI  18
MCCOOK         CLOUDY    31  30  96 N13       29.63R WCI  21
LEXINGTON      LGT SNOW  31  28  91 N10       29.62R WCI  22
STAPLETON        N/A     26  24  91 CALM        N/A
GOTHENBURG       N/A     30  28  92 N7          N/A  WCI  23
CALLAWAY         N/A     27  26  95 NE13        N/A  WCI  16
$$

...OBSERVATIONS IN CENTRAL LINCOLN COUNTY AREA...

CITY           SKY/WX    TMP DP  RH WIND       PRES   REMARKS
N.P. AIRPORT   MIX PCPN  30  24  78 NE17G24   29.67R WCI  18
N.P. DOWNTOWN    N/A     28  25  87 NE10        N/A  WCI  19
N.P. SOUTHEAST   N/A     28  24  86 N7G15       N/A  WCI  21
N.P. HILLCREST   N/A     28  25  88 NE18G26     N/A  WCI  15
$$

...SOME OBSERVATIONS FROM AROUND THE REGION...

CITY           SKY/WX    TMP DP  RH WIND       PRES   REMARKS
LARAMIE        CLOUDY    16   8  71 NE15      29.61R WCI   1
CHEYENNE       LGT SNOW  17  12  80 N14G23    29.67R VSB 3/4 WCI   3
DENVER         FLURRIES  25  21  85 N20G29    29.65R WCI  11
AKRON          LGT SNOW  23  19  85 N20       29.66R FOG     WCI   8
SCOTTSBLUFF    SNOW      24  20  84 N9        29.78R VSB 1/2 WCI  14
RAPID CITY     LGT SNOW  27  24  89 N16       29.88S FOG     WCI  15
BISMARCK       CLOUDY    29  24  82 NE15      30.06R WCI  18
PIERRE         CLOUDY    30  21  69 NE22G28   29.92R WCI  17
SIOUX FALLS    LGT SNOW  30  27  88 NE20G35   29.79F VSB 1   WCI  17
OMAHA          LGT RAIN  39  34  82 NE20G28   29.60F WCI  29
GRAND ISLAND   LGT SNOW  32  32 100 N15       29.65R FOG     WCI  22
KANSAS CITY    FAIR      56  45  66 NE13      29.45R
WICHITA        FAIR      73  49  42 SE12      29.29F
OKLAHOMA CITY  FAIR      85  41  21 S20G28    29.37F
DALLAS         FAIR      86  48  26 S25G31    29.45F
AMARILLO       FAIR      74   7   7 W29G38    29.47R
DODGE CITY     FAIR      58  37  45 N33G49    29.35R HAZE
HAYS             N/A     41  33  73 N29G36    29.47R
GOODLAND       CLOUDY    31  29  92 N16       29.59R WCI  20
$$




USA.gov is the U.S. government's official web portal to all federal, state and local government web resources and services.